This is the latest recevied weather packets stored in our database for station/object DG6YGE-6. If no packets are shown the sender has not sent any weather packets the latest 10 day(s).
| Time | Temp. | Humidity | Pressure | Rain* | Wind** | Luminosity | Snow |
|---|---|---|---|---|---|---|---|
| 1776889151 | 10° C | 58% | 1025.3 hPa | 0 mm | - | 0 W/m² | - |
| 1776888550 | 10.56° C | 58% | 1025.3 hPa | 0 mm | - | 0 W/m² | - |
| 1776887951 | 10.56° C | 59% | 1025.3 hPa | 0 mm | - | 0 W/m² | - |
| 1776887350 | 10° C | 60% | 1025.3 hPa | 0 mm | - | 0 W/m² | - |
| 1776886751 | 10.56° C | 61% | 1025.2 hPa | 0 mm | - | 0 W/m² | - |
| 1776886151 | 11.11° C | 58% | 1025.2 hPa | 0 mm | - | 0 W/m² | - |
| 1776885551 | 11.11° C | 58% | 1024.9 hPa | 0 mm | - | 0 W/m² | - |
| 1776884950 | 11.11° C | 60% | 1024.9 hPa | 0 mm | - | 0 W/m² | - |
| 1776884351 | 12.22° C | 61% | 1024.8 hPa | 0 mm | - | 0 W/m² | - |
| 1776883751 | 12.78° C | 56% | 1024.7 hPa | 0 mm | - | 1 W/m² | - |
| 1776883150 | 13.33° C | 56% | 1024.7 hPa | 0 mm | - | 7 W/m² | - |
| 1776882550 | 13.89° C | 50% | 1024.6 hPa | 0 mm | - | 11 W/m² | - |
| 1776881950 | 13.89° C | 48% | 1024.7 hPa | 0 mm | - | 15 W/m² | - |
| 1776881350 | 14.44° C | 49% | 1024.6 hPa | 0 mm | - | 22 W/m² | - |
| 1776880751 | 14.44° C | 47% | 1024.6 hPa | 0 mm | - | 38 W/m² | - |
| 1776880150 | 15° C | 47% | 1024.6 hPa | 0 mm | - | 57 W/m² | - |
| 1776879550 | 15° C | 45% | 1024.5 hPa | 0 mm | - | 80 W/m² | - |
| 1776878950 | 15.56° C | 44% | 1024.6 hPa | 0 mm | - | 102 W/m² | - |
| 1776878350 | 15.56° C | 43% | 1024.7 hPa | 0 mm | - | 104 W/m² | - |
| 1776877750 | 15.56° C | 43% | 1024.6 hPa | 0 mm | - | 129 W/m² | - |
| 1776877151 | 15.56° C | 43% | 1024.7 hPa | 0 mm | - | 160 W/m² | - |
| 1776876550 | 15.56° C | 42% | 1024.7 hPa | 0 mm | - | 177 W/m² | - |
* Rain latest hour (hover to see other rain measurements)
** Current wind speed in m/s (hover to see current wind gust speed)